Location: Columbus
(29.5618°N, 96.6770°W)
Time: 16:14:34
(UTC-06:00)

Daily predictions for brighter satellites

Satellite Brightness Start Highest point End
(mag) Time Altitude Azimuth Time Altitude Azimuth Time Altitude Azimuth
COSMOS 2406 3.8 17:42:28 10° N 17:47:43 36° ENE 17:52:58 10° SE
KM-V1 4.0 17:49:44 10° SW 17:51:53 33° SSE 17:53:45 10° E
CZ-2C R/B 2.5 17:48:17 10° SSE 17:53:02 59° ENE 17:57:58 10° N
Cosmos 1484 Rocket 4.2 17:50:31 10° ESE 17:53:03 17° ENE 17:55:35 10° NNE
SPOT 3 Rocket 3.6 17:49:03 10° SSE 17:54:11 63° ENE 17:59:19 10° N
Meteor 1-5 Rocket 4.2 17:53:24 10° N 17:58:44 57° E 18:04:14 10° SSE
Cosmos 1238 Rocket 2.7 17:57:11 10° SSE 18:00:06 36° E 18:02:51 10° NNE
PAYLOAD A 4.3 17:57:04 10° S 18:01:45 68° W 18:06:35 10° NNW
Tiangong 1 2.7 18:02:05 10° S 18:04:26 21° SE 18:06:36 11° E
ASTRO F (AKARI) 4.2 18:01:21 10° NNE 18:04:29 88° ESE 18:07:36 10° SSW
NOSS 3-1 (C) 4.5 17:58:30 10° NNW 18:06:25 75° WSW 18:14:51 10° SSE
IDEFIX/ARIANE 42P 2.5 18:03:09 10° SSE 18:08:22 84° ENE 18:13:35 10° N
Okean 1 3.9 18:08:52 10° SSE 18:12:34 37° E 18:16:19 10° NNE
USA 32 4.1 18:07:23 10° S 18:12:37 90° NW 18:17:51 10° N
OPS 8737 4.5 18:09:01 10° SSW 18:12:46 80° WNW 18:15:57 10° NNE
Cosmos 1536 4.1 18:14:37 10° NNW 18:18:31 46° W 18:22:25 10° SSW
Hubble Space Telescope 1.5 18:18:58 10° W 18:23:00 50° SSW 18:27:00 10° ESE
Meteor 1-18 Rocket 4.2 18:17:34 10° S 18:23:07 80° E 18:28:49 10° N
COSMO-SKYMED 1 2.5 18:19:36 10° NNE 18:23:57 75° ESE 18:28:16 10° S
Cosmos 1461 3.9 18:20:29 10° NW 18:24:16 46° WSW 18:28:05 10° S
SMAP 3.8 18:21:52 10° S 18:26:25 56° W 18:30:59 10° NNW
Cosmos 1544 Rocket 3.5 18:22:06 10° N 18:26:33 71° E 18:30:59 10° SSE
MSX 3.8 18:23:45 10° SSE 18:29:30 86° ENE 18:35:17 10° NNW
Cosmos 1500 4.3 18:28:52 20° NE 18:30:03 23° E 18:33:09 10° SE
SL-24 DEB 4.2 18:26:31 10° N 18:31:16 80° E 18:35:56 10° S
CZ-4 R/B 3.6 18:28:50 10° SSW 18:32:32 30° W 18:36:15 10° NW
Meteor 1-28 Rocket 3.4 18:29:51 12° NNE 18:33:15 48° E 18:36:55 10° S
Cosmos 1346 Rocket 3.0 18:32:13 10° SSE 18:36:00 45° E 18:38:33 19° NNE
Cosmos 1536 Rocket 3.7 18:34:54 10° S 18:39:20 80° W 18:43:48 10° N
Cosmos 1812 3.5 18:37:25 10° SSW 18:41:11 53° W 18:44:58 10° N
YAOGAN 1 4.4 18:41:51 10° SSW 18:45:45 33° W 18:49:39 10° NW
NOSS 3-3 (A) 4.1 18:40:26 10° SSW 18:46:31 76° WNW 18:52:24 13° NNE
NOSS 3-3 (C) 4.1 18:40:32 10° SSW 18:46:37 77° WNW 18:52:27 13° NNE
Cosmos 494 Rocket 4.0 18:44:56 10° N 18:50:05 56° ENE 18:55:13 10° SSE
OTV 4 1.9 18:53:06 10° NW 18:55:03 26° NNW 18:55:03 26° NNW
Cosmos 2251 Rocket 3.4 18:51:48 10° NNW 18:57:10 80° ENE 19:02:27 10° SSE
FALCON 9 R/B 3.6 18:31:02 10° WSW 18:57:47 78° NNW 19:01:52 31° ENE
Meteor 1-12 Rocket 4.3 18:52:47 10° N 18:58:36 86° W 19:04:30 10° S
Cosmos 1975 2.7 18:54:51 10° N 18:58:56 83° E 19:02:58 10° S
Okean 1-7 Rocket 3.6 18:55:43 10° S 19:00:10 57° E 19:01:25 41° NE
ATLAS 2AS CENTAUR R/B 2.9 18:54:00 10° NNW 19:01:53 63° ENE 19:09:08 10° SE
Cosmos 1025 Rocket 4.5 18:58:54 10° SSE 19:00:50 23° SE 19:00:50 23° SE
Meteor 2-21 Rocket 4.4 19:00:07 10° N 19:06:11 57° E 19:12:12 10° SSE
SL-27 R/B 3.4 19:03:22 10° NNW 19:06:56 50° WSW 19:10:25 10° S
GEOS 3 Rocket 3.4 19:02:43 10° SE 19:07:50 79° ENE 19:12:57 10° NNW
Cosmos 2297 3.5 19:03:21 10° SSW 19:09:00 77° ESE 19:11:32 34° NNE
SL-24 R/B - RUBIN 2 4.4 19:06:07 10° SSW 19:12:09 89° WNW 19:15:39 30° NNE
Cosmos 921 Rocket 2.9 19:08:27 10° S 19:12:16 64° SE 19:12:16 64° SE
Meteor 2-16 Rocket 4.5 19:06:46 10° N 19:12:40 51° E 19:18:31 10° SSE
Meteor 1-19 Rocket 4.1 19:08:43 10° S 19:14:25 75° E 19:17:46 26° NNE
ATLAS 3B CENTAUR R/B 3.0 19:02:20 10° W 19:19:34 80° S 19:22:05 45° E
Timation 1 Rocket 4.2 19:17:03 10° SSW 19:22:59 82° ESE 19:24:42 49° NNE
Cosmos 2278 Rocket 3.8 19:21:58 10° SW 19:26:54 31° WNW 19:31:53 10° N
Delta 2 Rocket 3.6 19:22:52 10° WSW 19:26:31 68° W 19:26:31 68° W
CZ-3B DEB 4.4 19:26:38 10° WNW 19:30:19 19° NNW 19:34:11 15° NNE
Cosmos 2239 Rocket 4.3 19:29:38 10° N 19:35:50 74° E 19:41:58 10° S
Tiangong 1 4.2 19:37:45 10° W 19:38:20 14° W 19:38:20 14° W
Meteor 1-23 Rocket 4.4 19:41:58 10° S 19:46:47 64° S 19:46:47 64° S
Hubble Space Telescope 3.5 20:01:00 10° WSW 20:02:26 15° SW 20:02:26 15° SW
Mugunghwa Rocket 4.4 19:56:45 10° WSW 20:03:54 67° SSW 20:03:54 67° SSW
Aurora 2 Rocket 4.2 19:56:41 10° WSW 20:06:29 60° S 20:06:38 60° S
